User: anonymous   Login
Location: Sunrise Point
(46.9200°N, 121.5900°W)
Time: 14:47:54
(UTC-07:00)
Language:

Cosmos 2058 - Orbit

View from above orbital plane
View from above orbital plane
View from above satellite
View from above satellite

Ground track
Ground track

The orbit data is extracted from the following two-line orbital elements,

1 20465U 90010A   15146.42977682  .00000867  00000-0  74069-4 0  9990
2 20465 082.4915 251.1073 0014661 311.9615 048.0357 14.96435298372719
Epoch (UTC): 26 May 2015 10:18:52
Eccentricity: 0.0014661
inclination: 82.4915°
perigee height: 568 km
apogee height: 588 km
right ascension of ascending node: 251.1073°
argument of perigee: 311.9615°
revolutions per day: 14.96435298
mean anomaly at epoch: 48.0357°
orbit number at epoch: 37271

The dashed part of the orbit path shows where the satellite is in the earth's shadow,  

DLR